{"data":{"norad_id":54068,"intl_designator":"2022-136T","name":"STARLINK-5222","alt_names":[],"object_type":"PAYLOAD","status":"ACTIVE","operator":null,"country":"US","launch_date":"2022-10-20","launch_site_code":"AFETR","launch_vehicle":null,"mission":null,"orbit_class":"UNKNOWN","rcs_meters":null,"size_class":null,"mass_kg":null,"dimensions":null,"purposes":["comms"],"wikipedia_slug":null,"has_3d_model":false,"image_url":null,"decayed_at":null,"tle_current":{"epoch":"2026-05-24T23:29:11.656032Z","epoch_age_seconds":80084,"freshness":"FRESH","line1":"1 54068U 22136T   26144.97860713  .00000186  00000+0  29758-4 0  9994","line2":"2 54068  53.2138   1.4575 0001025  77.2146 282.8961 15.08840184198366","mean_motion":15.08840184,"eccentricity":0.0001025,"inclination_deg":53.2138,"raan_deg":1.4575,"arg_perigee_deg":77.2146,"mean_anomaly_deg":282.8961,"bstar":2.9758e-5,"rev_number":19836,"period_min":95.437543039349,"perigee_km":539.03374386755,"apogee_km":540.45190923199,"semimajor_km":6917.8798265498,"source":"CELESTRAK","updated_at":"2026-05-25T13:38:17.650919Z"}}}